Regional Weather Roundup
Issued by NWS

Home | Current Version | Previous Version | Text Only | Print | Product List | Glossary On
Versions: 1 2 3 4 5 6 7 8 9 10 11 12 13 14 15 16 17 18 19 20 21 22 23 24 25 26 27 28 29 30 31 32 33 34 35 36 37 38 39 40 41 42 43 44 45 46 47 48 49 50
000
ASUS45 KABQ 010110
RWRNM
WEATHER ROUNDUP FOR NEW MEXICO
NATIONAL WEATHER SERVICE ALBUQUERQUE NM
700 PM MDT TUE SEP 30 2014

NOTE: "FAIR" MEANS FEW OR NO CLOUDS BELOW 12,000 FEET AGL WITH NO
       SIGNIFICANT WEATHER OR OBSTRUCTIONS TO VISION.

      THIS PRODUCT IS RELEASED AS TWO VERSIONS.  ONE VERSION NEAR
      THE TOP OF THE HOUR CONTAINING PRELIMINARY DATA FROM ALBUQUERQUE
      AND OTHER STATIONS.  A FINAL VERSION WITH ADDITIONAL DATA IS
      ISSUED ABOUT 10 MINUTES AFTER THE HOUR.

NMZ501-503-504-510>518-010200-
NORTHWEST PLATEAU/NORTHCENTRAL MOUNTAINS

CITY           SKY/WX    TMP DP  RH WIND       PRES   REMARKS
FARMINGTON     CLEAR     63  36  36 NW5       29.95S
LOS ALAMOS     CLEAR     59  30  33 W9        30.03R
SANTA FE       CLEAR     63  27  25 W9        29.96R
TAOS           CLEAR     55  30  38 W10       30.02S
ANGEL FIRE     FAIR      50  29  43 W9        30.05S

$$
NMZ402-403-502-505>509-010200-
WESTCENTRAL MOUNTAINS/SOUTHWEST MOUNTAINS

CITY           SKY/WX    TMP DP  RH WIND       PRES   REMARKS
GALLUP         CLEAR     62  37  39 SW8       30.01R
GRANTS         CLEAR     61  30  31 W7        30.02R
SILVER CITY    CLEAR     68  28  22 W10       30.00R

$$
NMZ407-409-411-412-010200-
SOUTHERN DESERTS

CITY           SKY/WX    TMP DP  RH WIND       PRES   REMARKS
LORDSBURG      FAIR      73  32  21 MISG      29.91S
DEMING         CLEAR     76  34  21 W12       29.90R
LAS CRUCES     CLEAR     75  36  23 W9        29.90S
HOLLOMAN AFB   PTCLDY    77  36  22 SW8       29.85S
ALAMOGORDO     PTCLDY    68  48  49 S8        29.87S
T OR C         CLEAR     75  32  20 S8        29.87R

$$
NMZ519>523-010200-
CENTRAL VALLEYS/CENTRAL HIGHLANDS

CITY           SKY/WX    TMP DP  RH WIND       PRES   REMARKS
ALBUQUERQUE    PTCLDY    72  31  22 N10       29.92R
DOUBLE EAGLE   CLEAR     66  32  28 N12       29.96R
MORIARTY ARPT  FAIR      61  31  32 NW8       29.98R
CLINES CORNERS CLEAR     60  32  34 W12       29.98S
BELEN          FAIR      68  33  27 S5        29.91R
SOCORRO        FAIR      71  41  34 SE3       29.89S

$$
NMZ524>526-539-540-010200-
SOUTHCENTRAL MOUNTAINS

CITY           SKY/WX    TMP DP  RH WIND       PRES   REMARKS
RUIDOSO        NOT AVBL

$$
NMZ527>531-010200-
NORTHEAST HIGHLANDS/NORTHEAST PLAINS

CITY           SKY/WX    TMP DP  RH WIND       PRES   REMARKS
LAS VEGAS      CLEAR     56  34  43 W8        29.95R
RATON          PTCLDY    64  31  28 W17       29.88R
CLAYTON        CLEAR     61  42  49 S6        29.81S

$$
NMZ532>537-010200-
EASTCENTRAL PLAINS

CITY           SKY/WX    TMP DP  RH WIND       PRES   REMARKS
TUCUMCARI      CLEAR     70  38  31 SW10      29.78R
CANNON AFB     CLEAR     67  47  49 SW8       29.84R
CLOVIS AIRPORT   N/A     66  46  48 SW8       29.85F

$$
NMZ028-029-538-010200-
SOUTHEAST PLAINS

CITY           SKY/WX    TMP DP  RH WIND       PRES   REMARKS
ROSWELL        CLEAR     77  54  44 NE3       29.80R
CARLSBAD       CLEAR     75  55  49 W6        29.79R
HOBBS          CLEAR     73  57  56 CALM      29.83S


$$



USA.gov is the U.S. government's official web portal to all federal, state and local government web resources and services.